Vertical_Velocity
-1 -1 -2 0 3 1 1 -1 1 -2 -0 2 -1 -1 -1 -1 -0 -1 -1 -2 0 -2 -2 10 4 5 3 0 2 5 3 -2 5 1 -1 -1 -1 -3 -1 1 1 0 0 1 -1 -0 1 -1 1
1 0 -0 -0 1 0 1 -2 -2 -2 -2 -0 2 -0 -1 0 -1 -2 -1 -0 1 -1 -4 2 3 3 -2 -3 0 8 2 -1 -1 -1 -1 -2 1 -1 -1 0 1 -1 1 -2 -0 1 -1 1 -0
-0 -1 -0 -2 -0 -0 -3 -1 -2 -1 -2 -1 -3 -1 -1 -1 1 -1 -0 0 1 -1 -5 -2 1 1 2 3 3 1 -1 2 8 3 2 2 -2 -3 3 -1 3 1 1 -1 1 0 -1 -2 -1
-1 -0 -0 1 -3 1 -1 -2 -1 -1 -2 0 -2 2 -0 -0 3 -1 -2 -3 -1 -0 0 3 4 4 1 4 -0 -2 -1 2 3 1 3 1 3 -3 4 3 11 1 2 1 1 1 -1 0 2
-2 -0 -3 -1 -0 2 -0 -0 1 -2 -3 -1 -4 -2 0 -2 1 -0 -3 -5 -2 0 0 1 0 2 -0 -3 4 1 7 5 7 3 3 1 2 3 -0 2 0 1 0 -2 -1 -1 0 -1 1
2 0 -1 -2 1 2 3 -0 -0 -1 -4 1 -1 -2 -1 -4 2 3 0 1 -3 -3 -2 -0 1 4 1 3 1 3 7 17 8 -1 -1 1 2 1 0 0 -1 -1 0 -1 -2 -1 0 -1 1
-1 -3 2 3 -2 13 1 -1 -2 -1 -2 -1 -2 -1 -2 -4 -0 2 2 0 -1 2 3 2 0 3 2 2 2 5 10 6 -0 1 -3 3 2 -1 1 -1 -2 -0 2 -1 -1 -1 0 -1 0
-1 2 -5 -1 -0 5 1 -0 -1 2 -2 -2 1 -3 -2 -2 -3 -1 1 1 2 0 -1 4 -0 2 -6 -1 1 -3 -1 5 0 -1 -4 -2 2 0 -1 -2 1 2 1 -2 0 -2 0 -0 -4
0 -0 1 -1 -0 2 -0 -2 -0 1 -2 -1 -1 -0 -2 -2 -1 -1 3 -3 -1 0 -0 -3 -2 -0 4 1 2 -1 3 1 1 -1 -2 1 -1 -0 -2 0 1 1 1 -2 -1 0 0 -1 -1
-2 -2 -3 -1 -1 2 2 -1 1 -1 -0 -1 -0 -0 -1 -1 0 -0 -1 0 -2 0 0 3 -1 -1 -4 5 4 -1 -1 2 -0 1 0 -1 -1 -2 1 0 -1 -0 -1 -2 0 0 -1 -2 -1
-3 3 0 0 1 -0 -0 0 -1 0 -0 -2 -1 -1 1 -2 -2 -0 -0 -1 0 -2 1 0 2 -1 -0 0 0 -1 -2 -3 -2 -1 -0 -1 -1 -1 2 -3 -1 -3 0 -1 1 -0 -1 -2 -1
-1 0 -3 -1 -1 -0 1 -0 -4 -1 -0 -2 -2 -2 -1 -1 -0 -1 0 1 -2 -1 -2 -1 0 -1 -1 -1 0 -1 -1 0 -0 0 -2 1 -0 -0 -1 -0 -1 -1 1 0 1 -0 -1 2 -0
-1 -1 -1 -2 -0 0 -3 1 0 -1 0 0 -1 -1 -2 -0 0 -1 0 -2 -2 -1 1 -2 0 -2 -0 -0 -1 0 -1 0 2 0 -0 1 -0 1 -1 0 1 1 -1 -1 0 1 1 0 0
-2 -0 1 1 -0 1 -0 -1 1 4 1 -1 -2 -0 -3 -0 1 -3 -1 0 -1 -1 -1 -0 -2 -1 -0 1 -2 -1 -2 -2 -3 -1 2 -1 1 -2 -1 0 0 -2 -2 -1 1 0 2 1 0
-2 -1 -0 1 -0 3 2 -1 1 2 2 -1 -1 1 -1 0 0 -4 -3 -1 -1 1 0 -0 -0 -1 -2 -3 -0 -1 -2 -3 0 0 -0 0 -1 -0 -0 -1 -1 -0 -2 -1 -0 -1 0 -1 1
-2 1 -0 -1 -1 -0 -1 3 -1 3 -1 0 -0 -0 0 2 1 -1 -3 -2 -1 -2 -1 1 0 -1 -2 -2 -0 -0 1 -1 -1 0 -0 -2 -1 1 -3 -1 1 -1 2 -2 1 -0 1 0 -1
-1 -1 0 -0 -0 -1 -0 1 -0 -2 2 1 1 0 -1 -1 2 2 -2 -2 -2 -0 -3 -1 -1 -1 -0 -2 -3 -2 0 -1 -1 -2 -3 -1 1 1 -1 -1 -0 -0 1 -2 -1 -0 1 2 2
-1 0 1 0 -0 -2 -1 -2 1 1 -1 1 4 -0 -1 0 -0 3 -1 -1 -3 -1 -1 -2 -1 1 -2 1 2 0 2 -1 -3 -1 -1 -0 2 -2 2 -2 -3 0 -0 -1 -2 -0 -2 -2 1
-1 0 -0 0 -1 1 -1 -0 -2 -0 1 -0 1 -1 2 1 -0 -1 3 1 -3 1 -1 -1 -0 -1 -1 -2 -2 -1 -3 0 -1 -2 0 1 1 -2 1 -2 -2 1 -1 -2 -1 -2 -1 1 -1
0 0 0 2 -2 2 0 -2 1 -0 -1 0 -0 2 -4 1 2 -0 2 -1 1 -2 -0 1 -0 -3 -2 -2 0 1 1 -0 -0 -1 0 4 3 1 0 -1 -2 1 -2 1 -1 -1 0 -0 2
0 1 0 -0 0 1 -1 -0 -1 1 -1 -0 -1 -1 1 0 0 -2 -0 -1 -2 1 1 1 -2 1 1 -0 -1 -2 -0 2 -1 -1 -3 1 -1 -1 -0 -1 -1 1 0 -0 -2 -1 -1 1 -1
-0 -1 -1 1 1 0 -0 -0 -2 3 3 1 2 0 2 2 1 -1 -1 -2 -2 -1 -1 -1 -0 -0 1 0 0 0 -3 0 -1 -2 2 0 1 -2 0 -2 -2 0 -1 -2 -2 -1 0 1 0
7 -3 0 0 -1 2 -1 -1 0 1 -2 0 1 1 0 3 -2 2 -6 0 0 -1 -1 -4 0 -2 -1 1 -0 2 -3 -2 1 3 2 1 2 1 -1 -3 -1 -1 -0 -1 -0 0 -2 -2 2
-0 -0 1 3 5 4 -2 -1 2 -2 -0 -1 -1 0 2 1 -2 -2 -0 -3 3 -1 2 0 -3 1 -2 -0 -0 -2 1 -4 -1 1 0 -4 -2 -1 0 -1 -1 -1 0 -1 -2 1 -1 0 -0
1 1 -2 3 -1 5 0 0 -2 -3 -1 -0 -0 -0 -0 3 1 0 -0 -0 -1 -4 4 -0 -3 2 0 -0 1 1 0 2 -1 0 1 1 1 -2 -1 -1 -2 -3 0 -0 -1 1 3 -1 -2
0 1 3 -4 0 4 -0 2 1 -0 -1 -1 -2 -0 -1 1 1 2 -1 1 -3 -1 -1 -1 -3 -4 4 -1 0 1 0 0 1 0 2 -0 -0 2 1 0 -1 -1 1 0 1 -3 -0 0 2
-0 -1 4 -1 -0 1 1 1 -0 -2 0 1 0 1 -1 -2 2 -0 7 -0 -1 1 -2 -4 -2 -4 -3 -1 -2 -1 -1 1 -2 -1 -3 2 2 -1 1 2 -1 -1 -1 -1 -2 -0 -1 -0 3
-0 0 1 -3 -1 0 -1 -2 -2 1 1 -0 1 0 1 -3 -3 1 3 -1 -2 0 4 -3 18 3 -4 -2 -5 -1 -4 -1 -1 1 -0 -2 0 -1 -2 -1 -1 -2 -1 -1 -1 -1 1 2 1
0 0 -2 -1 -1 -1 1 -1 2 -1 1 -3 1 -2 0 -2 -2 -1 -2 1 2 15 2 7 -4 -3 -3 -5 1 -4 -1 -5 -4 -3 -1 -1 -1 -1 -3 -2 0 3 1 -1 -1 -1 0 -2 -3
1 -2 -2 -2 2 1 -2 1 0 -0 -1 -2 -2 -0 -3 0 0 -2 2 1 0 -2 -2 -2 -4 0 23 24 -5 -0 -3 -0 -2 -1 -3 -3 0 2 0 -2 -3 2 2 1 1 1 -2 -1 -1
Height
5873 5873 5874 5875 5877 5873 5871 5869 5868 5865 5865 5865 5865 5864 5863 5861 5860 5862 5860 5861 5863 5865 5867 5863 5868 5871 5875 5877 5881 5883 5884 5886 5889 5891 5892 5895 5897 5900 5901 5903 5904 5904 5904 5904 5904 5904 5904 5904 5905
5875 5875 5876 5876 5875 5874 5871 5869 5867 5865 5865 5866 5866 5865 5863 5862 5860 5860 5861 5862 5864 5865 5867 5865 5868 5872 5875 5877 5880 5883 5885 5887 5889 5891 5893 5896 5897 5900 5902 5904 5904 5905 5905 5906 5906 5905 5906 5907 5908
5876 5875 5876 5876 5875 5874 5872 5870 5868 5867 5867 5867 5866 5865 5864 5863 5862 5862 5862 5863 5864 5865 5867 5867 5869 5871 5874 5878 5880 5882 5883 5887 5889 5891 5893 5896 5898 5900 5903 5904 5906 5907 5906 5906 5906 5907 5908 5910 5910
5876 5877 5878 5878 5876 5876 5874 5873 5869 5868 5869 5868 5867 5867 5866 5865 5864 5864 5863 5863 5864 5865 5867 5869 5871 5873 5875 5878 5878 5881 5883 5887 5888 5891 5895 5896 5897 5902 5905 5906 5906 5908 5907 5907 5908 5910 5911 5911 5911
5878 5877 5878 5877 5877 5876 5876 5873 5871 5870 5870 5869 5869 5868 5867 5866 5866 5865 5864 5865 5865 5866 5868 5870 5872 5875 5876 5877 5879 5881 5883 5886 5888 5892 5894 5896 5900 5905 5905 5907 5908 5909 5909 5909 5910 5912 5913 5913 5912
5880 5879 5876 5875 5878 5876 5876 5875 5873 5871 5872 5870 5870 5869 5869 5867 5867 5868 5867 5868 5868 5868 5868 5870 5871 5874 5876 5878 5880 5882 5883 5884 5888 5892 5894 5897 5902 5905 5907 5908 5910 5910 5911 5912 5913 5914 5915 5915 5915
5879 5875 5870 5872 5876 5872 5874 5875 5875 5873 5873 5871 5871 5871 5871 5869 5869 5870 5870 5870 5870 5871 5871 5872 5873 5874 5877 5879 5882 5883 5885 5888 5891 5893 5896 5900 5904 5907 5908 5911 5912 5912 5914 5915 5916 5916 5918 5918 5918
5879 5874 5868 5871 5877 5876 5876 5876 5876 5875 5875 5874 5873 5873 5874 5872 5872 5872 5873 5873 5873 5872 5872 5874 5875 5877 5878 5880 5882 5884 5887 5890 5892 5895 5898 5902 5906 5908 5910 5912 5913 5915 5916 5918 5919 5920 5921 5921 5920
5878 5877 5873 5876 5877 5877 5876 5876 5877 5877 5877 5876 5876 5874 5875 5874 5874 5875 5875 5874 5874 5875 5876 5875 5876 5877 5879 5879 5883 5886 5889 5891 5894 5898 5901 5905 5909 5912 5913 5913 5915 5917 5919 5921 5922 5922 5923 5923 5922
5878 5879 5879 5878 5879 5879 5878 5877 5877 5878 5878 5878 5878 5877 5876 5877 5877 5877 5876 5876 5876 5876 5877 5878 5879 5881 5882 5882 5885 5885 5890 5893 5895 5900 5904 5907 5910 5914 5914 5916 5918 5919 5922 5923 5924 5924 5924 5924 5924
5878 5878 5879 5878 5879 5877 5877 5878 5877 5878 5879 5878 5879 5878 5878 5879 5879 5879 5877 5877 5877 5877 5878 5879 5880 5881 5882 5884 5886 5888 5891 5894 5898 5902 5906 5909 5911 5915 5916 5919 5920 5921 5922 5924 5926 5927 5926 5925 5926
5879 5878 5877 5877 5877 5876 5877 5878 5877 5878 5879 5879 5880 5878 5879 5880 5880 5880 5880 5879 5879 5879 5880 5881 5881 5883 5884 5887 5889 5892 5894 5896 5899 5903 5908 5911 5913 5916 5918 5920 5923 5924 5925 5927 5929 5929 5929 5929 5929
5879 5879 5878 5877 5877 5877 5877 5878 5876 5878 5880 5880 5880 5880 5881 5881 5881 5881 5881 5880 5879 5880 5880 5882 5883 5884 5886 5888 5890 5894 5897 5900 5902 5906 5910 5913 5916 5918 5919 5922 5925 5927 5928 5930 5931 5930 5932 5933 5933
5879 5880 5879 5878 5879 5879 5879 5878 5878 5880 5879 5879 5879 5881 5881 5882 5882 5882 5881 5881 5881 5880 5881 5882 5884 5885 5886 5889 5891 5894 5898 5902 5905 5909 5911 5914 5917 5919 5922 5924 5926 5928 5930 5931 5932 5933 5934 5934 5936
5878 5880 5880 5879 5879 5879 5879 5877 5878 5878 5880 5880 5880 5881 5882 5883 5883 5883 5882 5881 5881 5881 5881 5882 5884 5885 5887 5890 5893 5895 5899 5902 5906 5910 5913 5915 5918 5920 5923 5925 5927 5929 5931 5931 5933 5934 5935 5936 5938
5877 5879 5879 5878 5879 5879 5879 5879 5878 5877 5878 5880 5881 5880 5881 5883 5884 5885 5884 5882 5881 5881 5881 5883 5884 5887 5889 5891 5892 5896 5900 5903 5907 5911 5914 5917 5918 5920 5924 5926 5928 5930 5932 5933 5934 5935 5938 5938 5939
5876 5877 5878 5878 5878 5878 5879 5878 5878 5879 5880 5880 5881 5881 5881 5883 5884 5886 5885 5884 5883 5883 5884 5884 5885 5887 5890 5892 5893 5896 5901 5904 5908 5912 5914 5916 5918 5922 5924 5926 5929 5931 5933 5934 5935 5936 5939 5940 5940
5873 5874 5876 5876 5878 5876 5877 5878 5878 5879 5879 5880 5880 5880 5881 5882 5883 5886 5886 5885 5885 5885 5885 5885 5886 5888 5890 5893 5895 5897 5900 5903 5907 5910 5913 5916 5918 5923 5925 5927 5929 5931 5934 5935 5936 5936 5939 5939 5940
5870 5872 5873 5874 5876 5876 5876 5877 5877 5877 5877 5877 5880 5881 5881 5882 5883 5885 5887 5887 5887 5885 5886 5886 5886 5888 5890 5893 5895 5898 5900 5903 5906 5908 5912 5915 5919 5923 5926 5928 5929 5932 5934 5936 5937 5937 5938 5940 5940
5868 5870 5872 5873 5873 5875 5875 5874 5874 5875 5875 5876 5878 5880 5879 5880 5882 5884 5885 5886 5888 5887 5886 5887 5888 5888 5890 5893 5896 5898 5901 5903 5905 5907 5911 5915 5918 5923 5926 5928 5930 5931 5934 5937 5937 5937 5938 5940 5940
5865 5868 5869 5870 5871 5873 5872 5872 5872 5873 5874 5876 5877 5878 5878 5878 5879 5880 5883 5884 5887 5888 5888 5888 5888 5889 5891 5893 5895 5898 5900 5903 5905 5906 5909 5913 5917 5922 5925 5927 5930 5931 5934 5936 5936 5937 5938 5939 5940
5861 5864 5865 5867 5868 5871 5870 5871 5870 5873 5875 5875 5876 5876 5877 5877 5877 5879 5880 5883 5885 5887 5887 5888 5889 5891 5892 5893 5896 5897 5899 5900 5905 5907 5910 5913 5917 5920 5924 5926 5928 5931 5933 5934 5935 5936 5937 5939 5939
5860 5860 5862 5863 5864 5868 5868 5869 5868 5870 5870 5873 5875 5875 5876 5876 5877 5878 5877 5881 5884 5885 5887 5887 5889 5891 5892 5894 5896 5897 5898 5899 5903 5907 5910 5912 5915 5918 5921 5925 5928 5930 5932 5933 5934 5934 5936 5937 5938
5854 5857 5859 5860 5863 5867 5864 5867 5867 5867 5869 5870 5872 5874 5876 5877 5877 5877 5878 5879 5883 5883 5886 5887 5888 5891 5892 5893 5894 5896 5897 5898 5901 5904 5908 5911 5914 5918 5921 5923 5925 5928 5930 5932 5933 5934 5934 5935 5936
5850 5853 5855 5857 5860 5864 5862 5865 5865 5866 5868 5869 5871 5872 5873 5875 5876 5876 5877 5878 5881 5882 5883 5886 5887 5889 5891 5892 5893 5895 5897 5897 5900 5903 5906 5909 5913 5916 5919 5920 5923 5925 5927 5929 5931 5932 5933 5933 5934
5847 5849 5851 5851 5857 5861 5859 5864 5865 5865 5866 5867 5867 5869 5870 5873 5875 5875 5875 5876 5877 5880 5881 5882 5883 5886 5890 5892 5892 5893 5895 5897 5898 5902 5904 5906 5911 5914 5916 5919 5921 5922 5924 5927 5929 5930 5931 5932 5932
5843 5844 5848 5849 5852 5856 5856 5861 5863 5864 5865 5866 5867 5868 5870 5870 5873 5873 5874 5874 5874 5876 5878 5879 5880 5882 5885 5889 5890 5890 5893 5895 5896 5899 5902 5904 5907 5909 5912 5915 5917 5919 5921 5923 5925 5926 5927 5928 5930
5840 5841 5842 5844 5846 5849 5852 5854 5859 5861 5863 5865 5866 5867 5867 5868 5868 5870 5872 5873 5873 5873 5875 5875 5875 5879 5880 5884 5886 5888 5888 5891 5893 5897 5900 5902 5904 5907 5909 5911 5914 5916 5917 5919 5921 5922 5924 5925 5926
5835 5835 5837 5840 5843 5844 5848 5851 5855 5857 5859 5860 5862 5862 5863 5864 5864 5866 5867 5868 5868 5868 5870 5872 5871 5874 5877 5879 5882 5885 5886 5886 5889 5892 5896 5900 5902 5904 5907 5909 5911 5913 5915 5916 5918 5919 5920 5920 5921
5832 5832 5834 5836 5840 5841 5843 5847 5847 5849 5852 5854 5855 5857 5859 5860 5860 5861 5863 5863 5863 5863 5863 5864 5865 5869 5867 5869 5877 5881 5883 5885 5886 5887 5890 5894 5898 5901 5902 5905 5907 5910 5913 5914 5915 5916 5917 5918 5918